Location: Newark
(25.6108°S, 54.5803°W)
Time: 00:45:34
(UTC+00:00)

deb Explorer IX - All Passes

Search period start: 27 October 2020 00:00
Search period end: 06 November 2020 00:00
Orbit: 537 x 1106 km, 38.8° (Epoch: 26 October)

Date Brightness Start Highest point End Pass type
(mag) Time Alt. Az. Time Alt. Az. Time Alt. Az.
27 Oct - 01:41:10 10° SW 01:44:25 22° SSE 01:47:39 10° ESE visible
27 Oct - 03:27:19 10° WSW 03:31:24 80° NNW 03:35:43 10° NE night (unlit)
27 Oct - 05:16:35 10° WNW 05:17:54 11° NW 05:19:13 10° NNW night (unlit)
27 Oct - 18:07:08 10° N 18:11:28 20° NE 18:15:26 10° E daylight
27 Oct - 19:52:29 10° WNW 19:58:24 89° NNE 20:03:23 10° ESE daylight
27 Oct - 21:41:18 10° WSW 21:45:35 25° SSW 21:49:25 10° SE daylight
27 Oct - 23:31:00 10° SW 23:33:27 14° S 23:35:47 10° SSE visible
28 Oct - 01:18:01 10° SW 01:21:20 22° SSE 01:24:35 10° ESE visible
28 Oct - 03:04:16 10° WSW 03:08:21 79° NNW 03:12:33 10° NE night (unlit)
28 Oct - 04:53:57 10° NW 04:54:47 10° NW 04:55:36 10° NNW night (unlit)
28 Oct - 17:43:38 10° N 17:48:15 21° NE 17:52:26 10° E daylight
28 Oct - 19:29:07 10° WNW 19:35:13 90° E 19:40:22 10° ESE daylight
28 Oct - 21:17:58 10° WSW 21:22:26 26° SSW 21:26:25 10° SE daylight
28 Oct - 23:07:43 10° SW 23:10:21 15° S 23:12:51 10° SSE visible
29 Oct - 00:54:52 10° SW 00:58:16 23° SSE 01:01:32 10° ESE visible
29 Oct - 02:41:11 10° WSW 02:45:16 78° NNW 02:49:25 10° NE night (unlit)
29 Oct - 17:20:09 10° N 17:25:01 22° NE 17:29:25 10° E daylight
29 Oct - 19:05:43 10° WNW 19:12:00 89° SSW 19:17:19 10° ESE daylight
29 Oct - 20:54:37 10° WSW 20:59:18 27° SSW 21:03:25 10° SE daylight
29 Oct - 22:44:23 10° SW 22:47:14 15° S 22:49:55 10° SE visible
30 Oct - 00:31:40 10° SW 00:35:11 23° SSE 00:38:31 10° ESE visible
30 Oct - 02:18:05 10° WSW 02:22:12 76° NNW 02:26:17 10° NE night (unlit)
30 Oct - 16:56:40 10° N 17:01:45 23° NE 17:06:23 10° E daylight
30 Oct - 18:42:18 10° WNW 18:48:47 89° SSW 18:54:16 10° ESE daylight
30 Oct - 20:31:15 10° WSW 20:36:07 28° SSW 20:40:25 10° SE daylight
30 Oct - 22:21:03 10° SW 22:24:07 16° S 22:26:58 10° SE visible
31 Oct - 00:08:27 10° SW 00:12:05 24° SSE 00:15:29 10° ESE visible
31 Oct - 01:54:58 10° WSW 01:59:08 75° NNW 02:03:11 10° NE visible
31 Oct - 16:33:12 10° N 16:38:29 23° NE 16:43:20 10° E daylight
31 Oct - 18:18:53 10° WNW 18:25:32 88° SSW 18:31:13 10° ESE daylight
31 Oct - 20:07:51 10° W 20:12:57 29° SSW 20:17:24 10° SE daylight
31 Oct - 21:57:41 10° SW 22:00:59 17° S 22:04:02 10° SE daylight
31 Oct - 23:45:13 10° SW 23:49:00 25° SSE 23:52:29 10° ESE visible
01 Nov - 01:31:50 10° WSW 01:36:04 74° NNW 01:40:05 10° NE visible
01 Nov - 16:09:43 10° N 16:15:11 24° NE 16:20:14 10° E daylight
01 Nov - 17:55:28 10° WNW 18:02:17 87° SSW 18:08:07 10° ESE daylight
01 Nov - 19:44:27 10° W 19:49:45 29° SSW 19:54:24 10° SE daylight
01 Nov - 21:34:18 10° SW 21:37:51 18° S 21:41:05 10° SE daylight
01 Nov - 23:21:56 10° SW 23:25:54 26° SSE 23:29:30 10° ESE visible
02 Nov - 01:08:40 10° WSW 01:12:59 73° NNW 01:17:01 10° NE visible
02 Nov - 15:46:16 10° NNW 15:51:53 25° NE 15:57:07 10° E daylight
02 Nov - 17:32:03 10° WNW 17:39:00 87° SSW 17:45:02 10° ESE daylight
02 Nov - 19:21:03 10° W 19:26:32 30° SSW 19:31:22 10° SE daylight
02 Nov - 21:10:54 10° SW 21:14:42 18° S 21:18:08 10° SE daylight
02 Nov - 22:58:38 10° SW 23:02:47 27° SSE 23:06:30 10° ESE visible
03 Nov - 00:45:28 10° WSW 00:49:55 72° NNW 00:53:57 10° NE visible
03 Nov - 15:22:49 10° NNW 15:28:34 26° NE 15:33:58 10° E daylight
03 Nov - 17:08:37 10° WNW 17:15:42 86° SSW 17:21:54 10° ESE daylight
03 Nov - 18:57:38 10° W 19:03:19 31° SSW 19:08:19 10° SE daylight
03 Nov - 20:47:29 10° SW 20:51:32 19° S 20:55:11 10° SE daylight
03 Nov - 22:35:19 10° SW 22:39:40 28° SSE 22:43:31 10° ESE visible
04 Nov - 00:22:15 10° WSW 00:26:49 71° NW 00:30:54 10° NE visible
04 Nov - 14:59:23 10° NNW 15:05:14 26° NE 15:10:48 10° E daylight
04 Nov - 16:45:12 10° WNW 16:52:23 86° SSW 16:58:46 10° ESE daylight
04 Nov - 18:34:12 10° W 18:40:04 32° SSW 18:45:15 10° SE daylight
04 Nov - 20:24:03 10° SW 20:28:21 20° S 20:32:12 10° SE daylight
04 Nov - 22:11:58 10° SW 22:16:32 29° SSE 22:20:31 10° ESE visible
04 Nov - 23:59:00 10° WSW 00:03:42 71° NW 00:07:52 10° NE visible
05 Nov - 14:35:58 10° NNW 14:41:54 27° NE 14:47:36 10° E daylight
05 Nov - 16:21:47 10° WNW 16:29:04 86° SSW 16:35:37 10° ESE daylight
05 Nov - 18:10:46 10° W 18:16:49 33° SSW 18:22:10 10° SE daylight
05 Nov - 20:00:37 10° SW 20:05:09 21° S 20:09:13 10° SE daylight
05 Nov - 21:48:37 10° SW 21:53:23 30° SSE 21:57:33 10° E daylight
05 Nov - 23:35:44 10° WSW 23:40:36 70° NW 23:44:50 10° NE visible
